Location: Ann Arbor
(42.2710°N, 83.7260°W)
Time: 07:17:58
(UTC-04:00)

ISS - Visible Passes

Search period start: 17 July 2018 00:00
Search period end: 27 July 2018 00:00
Orbit: 402 x 408 km, 51.6° (Epoch: 17 July)

Date Brightness Start Highest point End Pass type
(mag) Time Alt. Az. Time Alt. Az. Time Alt. Az.
17 Jul -1.3 01:51:38 21° NNW 01:51:53 22° NNW 01:54:32 10° NE visible
17 Jul -0.7 03:27:04 10° NW 03:29:15 16° N 03:31:26 10° NE visible
17 Jul -1.9 05:03:26 10° NW 05:06:28 33° NNE 05:09:30 10° E visible
18 Jul -1.5 01:00:30 25° N 01:00:30 25° N 01:02:32 10° NE visible
18 Jul -0.7 02:34:44 10° NW 02:36:53 16° N 02:39:01 10° NE visible
18 Jul -1.3 04:11:28 10° NW 04:14:13 24° NNE 04:16:58 10° ENE visible
18 Jul -2.8 22:28:16 10° SSW 22:35:07 - ENE 22:30:46 25° SE visible
19 Jul -2.6 00:04:14 10° W 00:07:23 42° NNW 00:10:32 10° NE visible
19 Jul -0.8 01:42:14 10° NW 01:44:30 17° N 01:46:46 10° NE visible
19 Jul -0.9 03:19:25 10° NW 03:21:53 19° NNE 03:24:21 10° ENE visible
19 Jul -3.3 04:55:35 10° NW 04:58:52 63° NNE 05:02:08 10° ESE visible
19 Jul -2.0 21:37:22 10° SSE 21:39:06 14° SE 21:40:51 10° E visible
19 Jul -3.7 23:11:56 10° WSW 23:15:12 72° NNW 23:18:30 10° NE visible
20 Jul -1.0 00:49:37 10° WNW 00:52:08 20° NNW 00:54:40 10° NE visible
20 Jul -0.7 02:27:17 10° NW 02:29:31 17° N 02:31:45 10° NE visible
20 Jul -2.3 04:03:33 10° NW 04:06:41 38° NNE 04:09:47 10° E visible
20 Jul -2.9 05:40:11 10° WNW 05:43:06 29° SW 05:46:00 10° SSE visible
20 Jul -3.9 22:19:52 10° SW 22:23:06 61° SE 22:26:21 10° ENE visible
20 Jul -1.5 23:56:59 10° WNW 23:59:48 25° NNW 00:02:37 10° NE visible
21 Jul -0.7 01:34:58 10° NW 01:37:06 16° N 01:39:14 10° NE visible
21 Jul -1.6 03:11:32 10° NW 03:14:24 26° NNE 03:17:16 10° E visible
21 Jul -3.8 04:47:50 10° WNW 04:51:04 56° SW 04:54:18 10° SE visible
21 Jul -2.2 23:04:27 10° W 23:07:30 36° NNW 23:10:35 10° NE visible
22 Jul -0.7 00:42:29 10° NW 00:44:41 16° N 00:46:53 10° NE visible
22 Jul -1.1 02:19:30 10° NW 02:22:04 20° NNE 02:24:38 10° ENE visible
22 Jul -3.8 03:55:39 10° NW 03:58:57 78° NNE 04:02:14 10° ESE visible
22 Jul -1.9 05:33:29 10° WSW 05:35:01 13° SW 05:36:33 10° SSW visible
22 Jul -3.2 22:12:02 10° WSW 22:15:16 58° NNW 22:18:32 10° NE visible
22 Jul -0.9 23:49:51 10° WNW 23:52:16 19° NNW 23:54:41 10° NE visible
23 Jul -0.9 01:27:22 10° NW 01:29:39 17° N 01:30:48 15° NE visible
23 Jul -1.3 22:57:11 10° WNW 22:59:53 23° NNW 23:02:35 10° NE visible
24 Jul -0.8 00:35:05 10° NW 00:37:13 16° N 00:39:22 10° NE visible
24 Jul -0.8 02:11:31 10° NW 02:11:58 13° NW 02:11:58 13° NW visible
24 Jul -1.8 22:04:33 10° W 22:07:32 31° NNW 22:10:31 10° NE visible
24 Jul -0.8 23:42:37 10° NW 23:44:46 16° N 23:46:54 10° NE visible
25 Jul -1.0 01:19:26 10° NW 01:21:03 19° NNW 01:21:03 19° NNW visible
25 Jul -0.9 22:49:58 10° NW 22:52:18 18° N 22:54:37 10° NE visible
26 Jul -1.2 00:27:18 10° NW 00:29:41 18° N 00:30:16 17° NNE visible
26 Jul -1.2 21:57:16 10° WNW 21:59:51 21° NNW 22:02:27 10° NE visible
26 Jul -0.9 23:35:02 10° NW 23:37:13 16° N 23:39:23 10° NE visible
